Regional Weather Roundup
Issued by NWS Sterling, VA

Home | Current Version | Previous Version | Graphics & Text | Print | Product List | Glossary On
Versions: 1 2 3 4 5 6 7 8 9 10 11 12 13 14 15 16 17 18 19 20 21 22 23 24 25 26 27 28 29 30 31 32 33 34 35 36 37 38 39 40 41 42 43 44 45 46 47 48 49 50
000
ASUS41 KLWX 262110
RWRLWX

REGIONAL WEATHER ROUNDUP
NATIONAL WEATHER SERVICE BALTIMORE MD/WASHINGTON DC
500 PM EDT THU MAR 26 2015

Note: "FAIR" indicates few or no clouds below 12,000 feet
with no significant weather and/or obstructions to visibility.
 TC=TEMPERATURE CELSIUS

 * =Non NWS site. Station does not report precipitation (e.g. rain,
    snow, etc.), thunder, or fog.

DCZ001-MDZ009-015-VAZ040>042-051-053>054-262200-
WASHINGTON METRO

CITY           SKY/WX    TMP DP  RH WIND       PRES   REMARKS
WASHINGTON NAT PTSUNNY   75  56  51 S14G25    29.61F
DULLES         PTSUNNY   73  54  51 S16G25    29.60F
ANDREWS AFB    SUNNY     74  58  57 S17       29.61F
FT BELVOIR     SUNNY     75  56  52 S8G17     29.61F
QUANTICO       SUNNY     65  52  62 SW14G22   29.62F
COLLEGE PARK*  SUNNY     75  55  50 SW8       29.60F
LEESBURG*      SUNNY     75  57  53 S22G31    29.61F
MANASSAS*      SUNNY     75  55  50 S12G22    29.62F
GAITHERSBURG*  SUNNY     73  55  53 S10G17    29.65F

$$

MDZ006>007-011-014-262200-
BALTIMORE METRO

CITY           SKY/WX    TMP DP  RH WIND       PRES   REMARKS
BWI AIRPORT    PTSUNNY   74  55  51 SW9G29    29.60F
MD SCIENCE CTR   N/A     69  57  65 MISG      29.61F
ANNAPOLIS      SUNNY     62  55  77 S13       29.63F

$$

MDZ012-015-019>023-262200-
MARYLAND EASTERN SHORE

CITY           SKY/WX    TMP DP  RH WIND       PRES   REMARKS
OCEAN CITY     LGT RAIN  52  51  97 S9G18     29.76F FOG
SALISBURY      LGT RAIN  65  61  87 S17G25    29.71F
BAY BRIDGE AP*   N/A     64  57  77 SE14G21   29.64F
CAMBRIDGE*     PTSUNNY   64  59  82 S16G26    29.68F
EASTON*        MOSUNNY   70  63  78 S18G32    29.71F

$$

MDZ017>025-262200-
SOUTHERN MARYLAND

CITY           SKY/WX    TMP DP  RH WIND       PRES   REMARKS
PATUXENT RIVER PTSUNNY   71  59  65 S14G24    29.67F
ST INIGOES     PTSUNNY   69  57  65 S10G20    29.67F
LEONARDTOWN*   PTSUNNY   72  57  60 S12G20    29.67F

$$

MDZ003>005-262200-
NORTH CENTRAL MARYLAND

CITY           SKY/WX    TMP DP  RH WIND       PRES   REMARKS
FREDERICK*     MOSUNNY   77  50  38 SW16      29.61F
HAGERSTOWN APT PTSUNNY   74  54  49 S13       29.57F
WESTMINSTER*   MOSUNNY   72  59  64 S14G20    29.61F

$$

MDZ501>502-262200-
WESTERN MARYLAND

CITY           SKY/WX    TMP DP  RH WIND       PRES   REMARKS
OAKLAND*       FOG       43 N/A N/A NW7       29.71S VSB 1/2
CUMBERLAND*    PTSUNNY   63  46  55 N13G18    29.68R

$$

VAZ025>031-262200-
SHENANDOAH VALLEY

CITY           SKY/WX    TMP DP  RH WIND       PRES   REMARKS
WINCHESTER*    CLOUDY    72  50  46 S13G20    29.58F
FRONT ROYAL*   CLOUDY    73  55  53 S9        29.56F
LURAY*         CLOUDY    77  55  47 SW13G18   29.59F
NEW MARKET*    CLOUDY    74  54  49 SW12G20   29.57S
STAUNTON*      PTSUNNY   73  53  48 S13G18    29.63F
WAYNESBORO*    MOCLDY    71  55  56 S16G23    29.64F

$$

WVZ021-048>050-054>055-262200-
EASTERN WEST VIRGINIA PANHANDLE

CITY           SKY/WX    TMP DP  RH WIND       PRES   REMARKS
MARTINSBURG    CLOUDY    74  55  51 S8        29.57F
PETERSBURG*    PTSUNNY   71  46  40 NW17G23   29.61S

$$

VAZ036>039-050-262200-
CENTRAL FOOTHILLS

CITY           SKY/WX    TMP DP  RH WIND       PRES   REMARKS
CHARLOTTESVILL MOSUNNY   73  54  51 SW15G26   29.63F
CULPEPER*      MOSUNNY   79  55  44 S9        29.62F
ORANGE*        MOSUNNY   75  54  46 S14G23    29.64F
GORDONSVILLE*  FAIR      72  54  52 S13G25    29.63F
WARRENTON*     FAIR      76  61  59 S13G20    29.61F

$$

VAZ055>057-262200-
NORTH AND CENTRAL PIEDMONT

CITY           SKY/WX    TMP DP  RH WIND       PRES   REMARKS
FREDERICKSBRG* MOSUNNY   77  54  44 SW12G23   29.62F
STAFFORD*      SUNNY     75  50  40 SW14G24   29.66F

$$

NCZ024-NYZ072-PAZ021-071-VAZ022-071-262200-
OTHER REGIONAL OBSERVATIONS

CITY           SKY/WX    TMP DP  RH WIND       PRES   REMARKS
NEW YORK CITY  CLOUDY    54  51  90 VRB3      29.67F FOG
PHILADELPHIA   PTSUNNY   66  60  81 S20       29.66F
PITTSBURGH     CLOUDY    43  39  86 N10       29.79R
ROANOKE        CLOUDY    73  49  42 W10       29.70S
RICHMOND       CLOUDY    77  59  53 S16G22    29.67F
RALEIGH        CLOUDY    73  56  54 SW18G25   29.78S

$$

ANZ530>537-262200-
MARINE OBSERVATIONS

STATION/POSITION TIME  TEMP    WIND        PRES
                       AIR SEA DIR/SP/G
                 (UTC) (F)     (DEG/KT/KT) (MB)
THOMAS PT LIGHT  2100                        N/A
BALT KEY BRIDGE  2000   62     140/ 18/ 19 1003.3F
COVE POINT       2000   51     190/ 17/ 19 1005.2F
LEWISETTA        2000   66 49              1005.2F
SOLOMONS ISLAND  2000      47                N/A
PINEY POINT      2000          200/ 14/ 15   N/A

$$




USA.gov is the U.S. government's official web portal to all federal, state and local government web resources and services.